Flag for U.S.A. Weather past 2 weeks in Knoxville, Tennessee, U.S.A.

Now
90 °F

Partly sunny.


Feels Like: 96 °F
Forecast: 74 / 90 °F
Wind: 3 mph from North

Location: McGhee Tyson Airport

Current Time: Jul 29, 2015 at 4:33:15 PM

Latest Report: Jul 29, 2015 at 3:53 PM


Visibility: 10 mi

Pressure: 29.94 "Hg

Humidity: 54%

Dew point: 71 °F

Location of KnoxvilleLocation

Historic Weather in Knoxville — Graph

°F

Knoxville temperature yesterday

Maximum temperature yesterday: 91 °F (at 1:53 PM)
Minimum temperature yesterday: 74 °F (at 5:53 AM)
Average temperature yesterday: 81 °F

Past Weeks' High & Low Weather Summary

 TemperatureHumidityPressure
High91 °F (Jul 28, 1:53 PM)100% (Jul 24, 2:53 AM)30.05 "Hg (Jul 24, 2:53 AM)
Low67 °F (Jul 16, 2:53 AM)42% (Jul 16, 6:53 PM)29.67 "Hg (Jul 14, 4:53 PM)
Average79 °F77%29.93 "Hg
* Reported Jul 14 2:53 PM — Jul 29 2:53 PM, Knoxville, Weather by CustomWeather, © 2015

Note: Actual official high and low records may vary slightly from our data, if they occured in-between our weather recording intervals... More about our weather records

Advertising

Knoxville weather history for previous 24 hours

 ConditionsComfort  
Time TempWeatherWind HumidityBarometerVisibility
2:53 PM
Wed, Jul 29
89 °FPartly sunny.6 mph55%29.96 "Hg10 mi
1:53 PM88 °FScattered clouds.3 mph57%29.98 "Hg10 mi
12:53 PM87 °FScattered clouds.5 mph59%30.00 "Hg10 mi
11:53 AM86 °FScattered clouds.5 mph63%30.00 "Hg10 mi
10:53 AM84 °FScattered clouds.3 mph67%30.00 "Hg10 mi
9:53 AM80 °FPassing clouds.No wind79%30.01 "Hg10 mi
8:53 AM78 °FMostly cloudy.5 mph84%30.02 "Hg9 mi
7:53 AM76 °FBroken clouds.3 mph91%30.00 "Hg8 mi
6:53 AM74 °FPassing clouds.6 mph94%29.98 "Hg7 mi
5:53 AM75 °FClear.No wind90%29.95 "Hg8 mi
4:53 AM75 °FPassing clouds.5 mph90%29.94 "Hg8 mi
3:53 AM76 °FPartly cloudy.No wind91%29.95 "Hg10 mi
2:53 AM76 °FPartly cloudy.3 mph91%29.95 "Hg10 mi
1:53 AM77 °FHigh level clouds.3 mph85%29.96 "Hg10 mi
12:53 AM78 °FHigh level clouds.No wind82%29.97 "Hg10 mi
11:53 PM
Tue, Jul 28
79 °FOvercast.No wind79%29.96 "Hg10 mi
10:53 PM78 °FPartly cloudy.7 mph82%29.97 "Hg10 mi
9:53 PM80 °FPartly cloudy.7 mph76%29.96 "Hg10 mi
8:53 PM79 °FMore clouds than sun.3 mph82%29.94 "Hg10 mi
7:53 PM83 °FThundershowers. Broken clouds.7 mph68%29.93 "Hg10 mi
6:53 PM84 °FBroken clouds.3 mph70%29.93 "Hg10 mi
5:53 PM84 °FBroken clouds.8 mph67%29.93 "Hg10 mi
4:53 PM86 °FThundershowers. Broken clouds.8 mph67%29.93 "Hg10 mi
4:01 PM90 °FThunderstorms. Broken clouds.13 mph56%29.97 "Hg10 mi
Weather by CustomWeather, © 2015

See weather overviewHow to use our weather pages